Theta_e
298 298 298 298 298 298 298 298 298 299 299 299 299 299 299 300 301 301 301 301 302 302 302 302 302 303 303 304 305 306 307 305 303 302 302 303 304 304 304 305 306 306 308 307 308 310 309 308 308 308 308 308 309 309 310 310 311 314 313 310 309 308 307 306 306 305 306 306 307 306 306 307 306 306 306 307 309 309 308 307 307 308 308 307 306 306 306 305
298 298 298 297 297 297 297 298 298 298 299 299 299 299 299 300 301 301 301 302 302 303 302 302 302 303 303 304 304 304 307 306 303 302 302 302 302 303 304 305 306 308 309 308 309 309 309 308 308 307 307 307 308 308 309 309 310 311 310 309 308 307 306 306 306 306 305 306 307 306 306 306 305 305 306 306 307 307 307 306 306 306 306 307 306 305 305 303
297 297 297 297 297 297 297 297 298 298 299 299 299 299 299 300 301 300 301 301 301 302 303 304 303 302 303 303 303 303 306 306 303 302 301 301 302 303 304 305 306 308 309 309 309 310 309 308 309 308 307 307 307 307 308 308 309 309 309 308 307 306 306 305 306 306 306 306 306 306 306 306 306 305 305 305 306 306 306 305 305 306 306 306 305 305 304 303
297 297 297 297 297 297 297 297 298 298 299 299 299 299 299 300 300 300 300 300 301 301 302 304 304 304 302 302 302 302 306 307 302 301 301 301 303 303 304 305 305 308 310 310 309 309 309 308 308 308 308 307 307 307 306 307 308 307 307 307 306 306 306 305 305 306 306 306 306 306 306 306 306 305 304 305 306 306 305 305 305 305 305 305 305 304 303 302
297 297 297 297 298 297 298 298 298 298 299 299 299 299 299 300 300 300 300 300 300 300 301 303 304 305 304 303 304 305 308 307 302 301 301 301 303 304 305 305 305 308 310 311 309 309 309 308 309 308 307 307 307 307 306 306 307 306 306 306 306 306 306 306 305 305 306 306 306 306 305 305 306 305 304 304 305 305 304 304 304 305 305 305 305 304 303 302
298 298 298 298 298 298 298 298 299 299 299 299 299 299 299 300 300 300 300 300 300 300 300 301 302 303 303 303 304 306 307 304 301 301 300 301 302 303 304 305 306 307 310 311 309 308 308 308 308 307 307 306 306 306 306 306 306 306 305 305 306 305 306 305 305 306 305 305 306 306 306 305 305 305 304 304 304 304 304 304 304 305 305 305 304 303 302 301
298 298 298 298 298 298 298 299 299 299 299 299 299 299 299 299 300 300 300 300 300 300 300 301 302 302 302 302 301 303 304 302 300 300 300 301 301 303 304 305 306 306 309 310 311 310 309 308 308 307 307 307 306 306 306 306 306 306 305 305 306 305 305 305 305 306 305 305 305 306 306 305 305 305 305 304 304 303 304 304 304 305 305 305 303 302 301 300
298 298 298 298 298 298 299 299 299 299 299 299 299 299 299 299 299 299 300 300 300 300 300 302 302 303 304 304 302 301 302 301 300 300 300 301 301 302 303 305 306 306 307 309 310 311 310 308 307 307 307 307 306 306 306 306 306 306 305 305 305 305 305 305 305 305 306 305 304 305 306 306 305 305 305 304 304 303 304 304 305 305 305 304 303 302 300 299
298 298 298 298 298 298 299 299 299 299 299 299 299 299 299 299 299 300 300 300 301 301 301 301 302 304 305 307 307 303 301 300 300 300 300 300 300 301 303 304 305 306 306 307 309 310 311 310 309 308 307 306 306 306 307 307 306 305 305 305 305 305 305 305 305 305 306 306 305 306 305 306 305 305 305 304 304 304 303 304 305 305 305 304 304 302 300 298
298 298 298 298 298 298 299 299 299 299 299 299 299 299 299 299 299 300 300 301 301 301 301 301 301 302 303 306 309 304 300 300 300 300 299 301 302 301 302 303 305 306 306 307 308 309 311 311 311 310 307 306 306 305 306 306 306 305 305 305 304 305 305 305 305 305 306 305 306 306 305 306 306 306 305 303 303 304 303 304 304 305 305 304 303 302 299 297
298 298 298 298 298 298 298 299 299 299 299 299 299 299 299 300 300 300 300 300 301 301 302 302 302 302 301 302 304 301 299 300 301 300 299 302 303 302 301 301 303 306 306 307 308 308 310 310 311 312 309 306 306 305 305 305 305 305 305 305 305 305 305 305 305 305 306 305 305 305 305 307 307 306 304 303 303 303 303 304 304 304 304 303 301 300 299 297
298 298 298 298 298 298 298 299 299 299 299 299 299 299 299 300 300 300 300 300 301 301 302 302 302 303 302 301 300 300 300 301 301 300 299 302 304 303 301 301 302 304 306 307 307 308 309 309 311 313 310 306 305 305 305 305 305 305 305 306 306 306 306 306 305 305 306 305 305 305 305 307 307 305 303 303 303 303 303 304 304 303 302 301 300 299 298 296
298 298 298 298 298 298 298 299 299 299 299 299 299 299 300 300 300 300 300 300 301 302 302 301 302 303 303 302 301 300 301 301 300 300 299 300 303 302 300 301 302 303 305 306 307 307 308 309 309 311 310 308 306 305 306 305 305 305 306 306 306 308 308 307 305 306 305 305 305 305 307 307 306 304 303 303 303 303 303 304 303 302 301 300 299 298 297 295
298 298 299 299 299 299 298 299 299 299 300 300 300 300 300 300 300 300 300 301 301 303 303 302 303 304 303 303 302 301 301 301 300 300 300 299 301 301 301 302 303 302 303 305 306 307 308 309 309 309 310 309 307 306 305 305 305 307 308 307 307 309 309 307 306 306 305 305 306 305 307 308 305 305 304 303 303 303 303 303 303 301 300 299 298 297 296 295
299 299 299 299 299 299 299 299 299 300 300 300 300 300 300 301 300 300 301 302 302 303 304 303 305 306 305 304 302 301 300 301 300 300 301 300 300 301 302 303 304 302 303 304 304 306 307 309 310 310 310 310 310 311 309 307 307 308 310 310 309 309 308 307 306 306 305 305 306 306 307 307 306 305 305 304 303 303 303 303 303 301 300 299 298 296 295 295
298 299 299 299 299 298 298 299 300 300 301 301 301 301 301 301 301 301 301 301 303 303 304 304 304 306 306 304 302 301 301 301 301 300 301 300 300 301 302 304 304 303 305 305 305 307 307 309 312 310 309 310 311 314 311 309 309 308 309 310 309 308 308 308 306 306 306 305 305 306 306 306 306 306 305 304 303 303 303 302 302 301 299 298 297 296 295 294
299 299 299 299 298 298 299 299 300 300 301 301 301 302 302 302 302 302 302 302 303 304 304 304 303 305 305 303 302 303 302 301 301 300 300 301 301 302 304 305 304 304 306 306 306 308 308 310 313 309 307 307 308 311 311 310 310 309 309 309 308 308 308 308 307 306 306 305 305 306 307 306 306 306 305 304 303 303 303 302 301 300 299 298 297 296 294 294
298 299 298 298 298 298 300 301 301 300 301 301 301 301 302 302 302 302 303 303 304 306 306 304 304 306 305 303 303 303 301 300 301 301 300 302 301 303 306 306 305 307 309 309 307 308 309 309 309 306 305 305 306 309 311 310 310 310 309 310 310 309 309 308 308 307 305 305 305 306 307 306 306 306 305 305 303 303 302 302 302 299 299 298 297 296 294 293
297 298 297 298 298 299 301 301 301 301 301 301 301 302 303 305 305 302 302 304 305 307 307 306 305 305 304 303 302 301 300 301 303 301 300 302 303 304 306 306 308 310 310 310 309 308 308 306 305 306 305 304 304 306 308 308 308 308 308 310 310 310 309 307 306 306 305 305 306 306 306 306 305 305 305 305 304 303 303 302 302 300 300 300 297 296 295 294
297 298 298 298 298 299 301 301 301 302 302 302 303 306 309 311 309 303 302 303 304 304 306 306 305 304 303 303 301 301 302 305 304 300 299 302 304 306 307 308 311 310 308 310 309 307 305 303 304 305 304 303 303 304 305 306 306 307 308 309 310 310 310 307 305 306 305 305 306 306 306 306 306 306 305 305 304 304 303 303 302 300 301 301 298 295 295 296
297 298 298 299 298 299 300 300 301 301 302 302 304 308 311 312 313 308 304 304 303 303 304 304 304 304 302 302 300 300 305 308 305 300 299 302 305 307 308 308 309 307 306 310 311 307 303 303 303 303 302 302 303 304 304 304 305 305 307 308 308 308 307 306 306 307 305 306 306 306 306 307 306 306 306 305 304 304 303 302 301 299 299 299 297 295 294 295
297 298 298 299 299 300 299 299 301 300 302 302 304 306 304 305 307 306 305 306 304 303 304 304 304 304 302 302 300 301 304 307 305 302 299 302 306 308 309 309 308 306 306 309 310 307 303 302 302 300 300 302 303 304 303 303 304 306 308 308 306 306 306 306 306 306 305 306 306 306 307 307 306 306 306 304 304 304 303 301 300 299 299 297 296 295 294 294
298 297 298 299 299 300 299 300 300 300 301 301 302 302 302 301 301 301 305 308 306 304 304 304 304 303 304 303 300 303 304 303 304 303 299 301 305 307 308 308 307 306 306 305 305 305 304 302 301 300 300 301 303 303 302 303 306 308 309 307 305 305 306 306 306 305 305 306 306 307 306 305 305 306 306 305 305 305 303 301 299 299 299 296 295 295 294 294
298 298 299 299 299 300 300 300 300 300 301 301 301 300 300 300 298 300 307 310 308 306 303 303 303 302 303 302 301 305 305 302 303 302 300 301 303 306 306 306 308 307 306 305 303 303 302 300 300 301 302 302 303 303 301 304 308 309 309 306 304 304 305 306 306 306 306 306 306 305 306 307 307 307 306 305 305 305 303 300 298 298 298 296 297 298 295 294
298 298 299 299 300 299 299 300 301 302 302 300 300 299 299 300 297 299 308 311 308 307 304 303 303 301 301 301 302 304 304 303 302 301 301 300 301 306 306 304 306 307 307 307 305 303 302 301 301 302 302 303 305 303 301 303 307 308 307 304 304 305 306 306 307 307 309 309 306 305 308 310 309 308 307 306 306 305 303 300 299 299 298 296 297 298 297 295
298 299 299 300 300 299 302 304 300 301 303 300 299 299 298 299 298 299 310 315 309 306 306 306 306 304 303 303 304 304 306 306 302 301 301 299 299 303 306 304 303 305 307 305 303 302 302 302 302 303 304 305 306 303 301 302 305 308 307 305 305 306 306 306 307 307 309 311 307 305 307 307 307 308 307 306 306 306 303 302 300 300 300 297 297 297 296 295
298 299 299 300 300 301 306 305 299 304 310 303 298 298 298 298 298 300 313 316 307 305 306 306 305 304 304 304 304 305 307 306 303 302 302 301 300 302 306 306 304 304 303 303 306 303 301 303 303 303 306 305 303 301 301 301 303 306 307 305 305 304 305 306 306 306 308 309 308 305 304 305 307 308 307 305 305 305 305 305 303 302 301 299 298 296 295 295
298 299 299 300 300 300 302 301 301 304 306 302 298 298 299 298 299 305 315 311 303 303 304 306 305 302 303 305 305 306 305 304 305 304 302 302 302 304 307 306 304 305 304 307 309 303 301 302 302 303 305 303 301 300 300 300 301 303 305 303 302 302 304 305 306 307 308 309 310 306 303 306 309 309 306 304 305 306 306 306 306 304 302 301 299 297 295 295
298 299 299 299 300 300 299 299 302 301 299 298 299 299 298 298 301 310 315 306 302 303 303 305 305 303 304 306 306 307 305 304 306 304 303 304 302 303 306 305 305 306 307 309 308 303 302 300 300 303 303 301 301 300 299 300 301 302 302 301 302 303 305 305 305 307 307 309 311 307 303 304 308 309 307 306 306 306 306 307 306 306 304 302 301 298 296 295
298 298 298 299 300 300 301 300 298 298 297 298 298 298 298 302 309 314 310 305 304 304 304 306 306 304 305 307 307 306 305 305 305 303 306 308 305 304 304 303 305 306 305 307 305 302 301 299 300 303 301 300 300 300 300 301 301 301 302 303 305 305 305 305 306 305 307 311 310 305 302 302 306 310 308 307 307 304 305 306 305 306 305 303 302 299 296 295
298 298 298 299 299 300 305 304 298 298 298 298 298 300 304 311 315 313 306 305 306 305 304 306 306 304 305 306 306 305 305 305 304 304 306 306 304 303 303 303 305 307 306 307 306 303 302 302 303 302 300 300 301 302 303 302 301 301 302 305 307 309 308 308 307 305 308 313 309 304 301 301 304 308 305 304 305 303 304 305 305 306 305 304 302 299 297 296
298 298 298 299 299 299 303 302 298 298 299 299 300 304 312 315 312 309 306 305 307 306 305 304 305 305 304 305 304 302 305 305 304 306 306 306 304 301 302 302 303 309 311 310 308 307 306 304 302 302 300 300 302 304 305 304 302 302 304 305 308 310 310 310 310 309 310 312 307 302 301 302 304 305 303 302 303 303 304 304 304 305 304 304 302 300 299 298
298 298 298 298 298 298 299 299 299 299 299 300 303 309 316 314 309 307 305 305 305 305 304 303 304 305 304 305 304 301 304 304 304 307 307 307 306 303 303 301 301 307 311 309 307 308 308 305 302 303 302 300 302 303 303 304 303 302 304 305 308 309 309 310 311 310 311 310 306 302 302 305 306 304 302 302 303 303 302 302 303 304 304 304 303 301 301 299
298 299 298 298 298 298 298 298 300 299 298 301 309 316 318 312 307 306 305 304 301 300 302 302 303 304 304 304 303 301 305 306 304 306 307 307 306 305 303 301 301 303 304 306 306 305 309 310 306 304 304 302 301 301 300 301 301 302 302 303 306 306 306 309 311 310 311 308 305 303 303 307 308 305 303 302 303 303 302 302 303 303 303 303 303 302 301 300
298 298 299 299 298 298 297 298 299 299 301 306 314 318 316 308 306 308 307 304 300 299 302 302 303 306 306 303 302 301 304 306 305 304 305 305 304 303 301 299 299 300 302 306 306 303 308 312 306 302 301 301 300 300 298 299 302 303 301 302 305 303 302 306 309 307 306 305 304 305 306 307 306 304 302 302 302 302 302 301 301 301 301 302 302 301 301 301
297 299 302 300 297 298 297 298 300 300 303 312 319 316 310 305 305 309 309 305 302 302 303 305 305 308 308 305 304 303 302 304 306 305 305 303 302 301 300 297 298 299 300 303 304 303 306 309 306 301 300 298 298 299 298 300 304 304 303 304 303 301 300 304 307 304 303 306 307 306 308 308 306 303 301 301 301 302 302 301 299 300 300 301 302 302 302 302
298 300 303 301 297 298 298 298 299 300 305 317 321 313 304 300 300 302 304 303 302 301 303 307 307 306 307 307 306 305 304 305 306 307 305 303 303 301 299 298 298 298 297 298 301 302 302 305 305 304 303 299 296 297 297 297 300 303 304 302 300 301 301 301 305 306 306 308 309 307 307 308 308 306 303 301 301 301 303 302 300 300 301 301 302 303 302 302
299 301 304 301 298 299 299 298 299 301 309 316 315 308 301 299 299 299 300 301 302 302 304 306 307 305 305 307 307 305 305 307 306 306 305 304 304 302 299 299 298 296 296 297 300 301 301 305 305 303 304 300 296 299 302 299 298 301 302 299 301 305 305 304 306 308 308 308 308 307 307 306 307 305 303 302 301 301 302 302 302 302 302 302 303 304 303 303
301 306 309 303 299 300 301 301 301 306 316 317 314 309 302 300 299 297 297 299 301 304 305 304 304 305 305 305 305 304 304 305 303 304 305 304 305 303 299 299 297 296 295 296 300 300 300 305 307 303 303 302 299 301 305 302 299 299 300 300 300 303 305 305 305 305 306 308 308 308 306 306 306 303 301 301 301 301 302 303 303 302 302 303 303 304 304 304
303 310 312 302 299 301 302 304 307 312 316 313 310 305 299 299 300 296 296 299 300 303 305 304 302 304 305 304 303 301 302 302 301 303 304 302 303 304 300 298 297 296 296 297 299 299 300 304 306 304 303 304 304 302 303 304 301 300 302 301 301 302 304 304 303 302 303 305 306 306 306 306 305 302 299 299 300 302 303 303 303 303 302 302 303 304 304 304
303 311 313 302 300 302 303 307 309 308 308 305 303 301 298 299 300 297 296 297 298 300 302 302 301 302 302 304 303 299 300 302 301 301 302 301 302 304 300 297 296 296 297 298 298 299 300 302 304 303 303 306 306 300 298 301 301 300 302 302 301 302 303 304 305 303 300 301 303 303 304 305 302 300 298 298 299 300 301 303 303 302 301 301 302 303 302 303
306 313 311 302 300 303 309 313 307 303 304 303 300 299 299 298 298 298 297 296 298 299 299 300 300 300 299 302 304 299 299 302 301 301 301 300 301 303 299 297 296 296 297 299 299 298 298 299 301 303 303 305 302 296 296 298 298 299 299 299 300 301 302 304 306 304 300 300 301 300 302 303 301 300 299 298 299 300 301 303 303 302 301 300 301 302 302 302
311 312 308 302 299 303 314 317 307 301 299 296 295 296 297 297 297 298 297 297 298 298 300 301 300 301 300 299 302 301 300 303 303 303 302 300 300 300 297 296 296 296 296 298 299 297 297 300 302 304 305 303 298 295 296 296 297 299 299 298 299 301 301 302 303 302 301 301 302 301 302 303 301 301 300 299 300 301 302 303 303 301 301 301 300 300 301 301
309 308 308 304 300 306 319 319 310 303 298 297 297 297 297 296 296 297 297 297 298 298 300 301 300 301 299 297 300 301 299 303 306 303 301 300 300 297 296 296 296 296 297 298 299 298 300 303 303 304 307 306 303 302 301 299 299 301 301 300 299 300 300 300 299 300 301 301 302 304 305 305 302 302 301 300 300 301 302 302 302 301 301 301 300 300 300 300
308 308 310 306 301 307 315 311 308 306 301 301 302 299 299 298 296 297 297 298 298 298 300 301 299 299 297 296 299 298 295 299 305 303 299 299 300 296 295 296 294 295 297 297 297 298 300 301 302 303 306 308 309 309 307 304 301 301 302 302 300 300 300 299 300 301 301 301 302 303 305 304 302 302 301 301 301 301 301 302 302 301 301 300 300 300 300 301
310 311 313 311 306 306 307 304 304 306 304 305 305 301 300 300 298 296 296 298 299 297 298 299 298 298 297 297 301 302 298 297 298 299 299 300 300 297 294 295 295 295 296 295 296 297 297 297 299 301 304 305 306 306 305 303 301 300 300 300 300 302 301 299 300 301 301 301 302 302 302 302 302 302 302 302 302 301 300 301 301 301 300 301 301 300 300 300
310 311 310 310 311 310 308 305 304 305 306 307 307 303 301 301 300 297 295 296 298 297 297 298 297 299 300 299 303 305 302 298 296 298 301 300 299 298 295 294 294 295 295 294 295 296 296 298 299 299 300 301 301 301 301 300 299 298 299 299 299 301 301 300 300 300 300 302 302 302 302 303 302 302 302 301 300 300 300 299 300 300 300 300 300 300 299 300
307 309 302 300 308 312 310 308 306 305 306 305 303 302 302 301 301 302 299 296 295 296 299 300 300 301 301 301 302 304 304 303 301 302 304 300 298 298 297 295 294 295 295 295 295 294 296 298 299 298 299 299 298 299 298 298 298 298 298 298 298 299 300 300 300 299 299 301 301 301 301 301 301 300 300 300 299 299 299 299 300 299 299 300 300 300 300 300
304 304 298 296 303 306 304 304 305 306 306 304 302 302 303 303 304 303 299 297 297 296 299 304 304 302 302 301 300 303 305 305 303 303 304 301 299 299 298 297 295 294 295 295 294 294 296 298 298 297 298 297 297 298 298 297 298 298 298 299 299 299 299 299 299 299 299 299 299 299 299 299 299 299 299 299 299 299 299 300 300 299 300 301 300 300 300 300
304 305 302 301 302 300 299 301 304 306 306 304 305 305 304 305 305 302 299 301 304 299 297 303 305 303 303 303 301 302 304 303 303 304 302 301 300 299 299 300 297 294 294 295 294 293 295 298 299 297 297 297 297 298 299 299 299 298 298 298 297 298 298 298 299 298 299 299 298 298 299 298 298 299 299 299 300 300 301 302 300 299 300 300 300 300 300 300
299 299 300 305 306 300 299 301 302 306 307 305 307 307 304 305 306 303 301 301 304 303 300 303 306 303 301 302 302 302 303 303 303 303 302 301 301 300 300 300 298 296 296 295 295 294 294 297 298 296 298 299 297 299 299 297 298 298 298 299 299 299 299 299 299 299 299 299 298 299 299 299 299 300 301 301 301 302 303 302 301 300 300 300 300 300 300 300
297 298 298 305 309 303 301 302 302 305 309 308 308 307 305 306 305 304 304 302 300 302 302 302 303 302 301 303 303 302 301 301 300 300 300 300 300 299 299 298 298 298 297 296 296 295 294 295 296 297 298 299 297 298 297 296 301 305 304 304 303 302 302 302 301 300 299 299 299 300 300 300 301 302 302 302 302 302 303 302 301 301 301 301 300 300 300 300
Wind_Speed
14 14 13 14 14 14 15 16 17 18 20 20 18 18 16 14 14 14 11 9 7 6 6 6 4 3 5 8 14 19 23 28 37 46 37 26 29 27 26 27 24 24 24 23 22 20 18 16 16 16 12 8 7 6 9 9 7 4 4 6 6 5 6 6 7 6 5 6 8 8 9 9 9 10 9 11 7 10 10 11 11 10 11 12 13 17 19 21
14 13 12 12 13 13 14 15 16 18 20 19 18 18 15 12 13 16 18 18 16 12 7 7 9 8 5 4 7 14 18 24 37 40 31 31 32 27 27 28 23 23 24 20 18 18 13 11 14 14 9 7 7 8 8 7 8 6 5 6 6 5 6 6 7 6 6 7 8 8 8 8 8 8 7 9 8 11 11 10 11 11 11 13 15 19 20 21
13 12 11 12 12 12 13 14 15 17 18 18 17 17 16 11 10 15 18 21 23 21 16 8 8 10 11 8 9 9 10 20 32 27 30 35 32 28 28 27 23 22 22 16 14 14 13 13 13 11 8 8 7 8 9 6 7 7 5 7 5 6 7 7 7 7 6 6 7 8 7 6 7 6 6 8 8 10 10 9 10 11 12 12 14 17 19 19
13 12 12 12 12 12 13 13 15 16 17 17 17 18 16 10 10 12 12 15 19 22 23 20 12 5 8 8 9 8 7 11 17 18 31 35 31 28 27 27 25 22 19 14 9 9 15 17 15 11 8 9 7 8 11 7 4 5 5 7 5 6 6 6 8 7 6 6 7 6 6 6 5 5 6 8 6 7 7 7 9 10 10 10 11 14 17 17
13 13 13 13 13 13 12 13 14 15 16 16 17 18 17 12 9 8 9 9 13 17 21 27 27 17 8 2 5 5 5 3 9 22 31 31 29 27 27 29 25 20 19 14 10 10 14 15 13 10 8 8 7 8 10 8 5 5 8 8 6 5 5 5 6 6 6 5 6 6 6 6 4 5 6 7 5 4 5 6 7 7 8 8 9 12 14 15
14 14 15 15 15 14 13 13 13 14 15 16 17 19 20 16 10 7 8 8 11 13 16 24 31 32 27 17 13 9 5 4 9 23 27 28 29 27 25 26 25 19 18 18 15 12 12 11 10 9 8 9 10 10 9 8 6 6 7 7 7 6 5 5 4 4 5 5 6 5 4 5 5 4 5 6 5 4 5 6 6 7 8 8 9 10 11 12
14 15 16 17 17 16 14 13 13 14 14 16 18 20 23 22 18 15 12 10 9 8 10 15 21 26 27 29 33 25 12 5 13 22 23 25 28 28 24 22 24 21 21 24 19 11 9 9 10 8 7 8 10 11 10 10 9 8 8 6 7 6 5 4 3 3 4 5 6 5 2 4 6 4 4 5 4 5 6 7 7 8 9 8 9 8 9 10
14 16 17 18 19 18 15 13 13 14 14 15 17 19 22 23 23 22 20 17 13 11 8 7 9 10 13 17 20 18 10 7 18 22 21 21 26 28 23 22 25 23 24 26 20 13 8 8 10 6 7 7 7 8 8 8 9 8 8 6 6 5 5 3 4 3 2 3 5 6 3 4 4 4 3 5 5 5 7 9 7 7 8 7 7 7 8 10
14 15 17 19 20 20 16 13 13 13 13 14 16 18 20 21 21 21 22 23 23 22 18 17 12 3 5 4 2 8 9 11 17 20 19 18 23 26 25 25 25 23 23 24 24 20 9 7 9 6 8 8 6 5 2 3 5 6 8 7 6 5 5 3 3 3 1 2 4 6 4 3 4 3 1 6 6 6 7 8 5 5 6 6 6 7 8 9
14 15 17 18 20 21 19 14 12 13 12 12 14 15 16 17 19 20 21 22 24 24 25 31 25 11 8 5 1 8 7 12 17 18 16 16 20 23 26 26 24 22 20 20 24 21 10 7 8 6 8 6 7 7 5 5 5 6 8 7 7 6 5 4 5 4 1 2 5 5 5 2 3 2 0 6 7 6 8 7 5 5 5 6 6 7 9 10
13 14 16 17 19 21 21 16 11 11 11 10 9 10 12 14 15 17 18 19 20 22 23 25 24 22 23 15 9 9 8 11 16 19 17 15 17 21 22 23 23 21 18 17 18 17 14 10 8 5 4 4 5 7 7 5 5 6 6 7 8 7 5 5 6 6 2 3 6 6 5 2 2 1 2 5 6 6 8 7 6 6 5 6 6 7 9 10
12 13 14 16 17 19 21 19 12 9 9 9 9 9 12 12 12 13 14 15 16 20 25 23 16 9 11 17 13 7 11 10 14 20 19 14 13 15 17 18 19 19 16 14 15 16 16 14 7 3 2 3 3 4 3 0 3 4 4 3 6 6 6 6 7 7 3 3 7 8 4 2 2 2 3 4 5 6 8 7 6 6 5 5 5 5 7 11
10 11 13 14 16 18 20 19 14 10 9 9 11 11 12 12 13 13 15 17 14 15 18 19 19 11 5 9 9 12 16 12 14 21 21 17 12 10 11 13 15 16 15 13 14 15 14 14 11 8 4 2 2 2 1 3 2 4 4 1 2 3 3 5 6 7 5 3 7 7 2 1 4 3 3 3 4 6 7 7 5 5 5 5 5 5 5 10
9 9 11 13 16 19 19 18 15 11 8 8 9 9 10 10 11 12 15 18 17 15 12 10 11 14 12 6 5 17 20 15 20 24 23 22 16 10 10 12 12 12 13 13 13 13 12 10 6 5 4 4 4 2 1 4 3 2 1 1 2 1 2 3 5 6 5 4 7 6 2 0 3 4 4 3 2 4 6 7 5 5 5 5 4 5 5 7
7 8 10 13 16 18 16 15 17 15 14 14 14 12 9 7 7 9 11 16 18 16 14 14 11 7 8 5 5 17 22 21 25 26 24 22 18 13 12 12 10 9 10 10 11 11 11 9 4 3 3 3 4 0 2 3 1 1 2 2 4 3 1 2 3 6 6 5 7 5 2 3 1 2 4 5 3 3 4 6 5 5 6 6 4 5 5 6
7 9 10 13 17 18 14 11 12 16 20 23 25 25 20 13 7 5 6 9 14 16 15 15 12 6 5 3 6 14 20 22 23 25 23 19 15 12 13 11 6 8 8 8 11 9 6 5 2 3 5 1 1 2 1 3 3 4 4 2 3 4 2 1 2 5 7 6 6 4 2 4 3 4 3 2 4 3 3 5 5 6 6 6 5 4 4 6
8 10 12 15 17 17 13 8 6 8 13 16 19 22 27 28 20 7 4 3 6 12 18 18 11 7 7 5 6 9 14 19 22 26 25 16 12 13 13 8 5 10 10 8 11 9 5 3 1 2 7 6 7 4 2 4 4 4 5 3 3 5 4 2 1 3 8 7 7 6 4 5 5 4 4 2 4 3 3 4 4 5 4 5 5 4 5 6
10 11 13 15 16 15 13 9 3 2 3 6 9 10 13 24 31 26 16 9 5 5 12 20 15 7 5 9 7 10 16 18 19 25 24 13 8 11 10 5 7 13 9 3 7 8 4 3 2 4 8 8 9 7 4 4 5 4 5 4 4 5 5 4 2 3 8 7 7 7 5 6 7 6 4 2 4 2 2 2 4 4 3 4 4 3 5 6
10 11 12 14 14 13 14 13 8 6 7 9 10 11 6 6 19 31 33 25 14 5 4 12 12 4 1 7 10 15 15 11 13 23 26 17 10 11 9 5 7 8 4 1 5 8 4 3 5 6 7 7 8 7 5 5 6 6 5 4 5 6 4 5 5 4 7 7 6 6 6 8 9 9 5 3 4 2 3 1 3 3 1 2 3 2 2 4
12 12 13 14 13 10 13 16 15 13 11 9 7 7 4 1 4 12 21 22 15 8 6 4 6 5 1 5 12 19 12 5 9 23 30 22 13 10 9 7 4 3 6 2 3 5 5 7 7 4 4 6 7 6 6 6 6 6 6 5 6 5 4 7 6 5 6 6 4 5 8 9 9 9 5 4 3 1 3 0 2 1 1 3 1 3 3 3
13 13 13 14 12 9 9 12 14 15 15 12 9 6 2 2 3 2 4 10 11 9 8 3 4 4 2 4 12 17 7 2 7 23 32 23 10 5 7 8 3 6 8 3 1 3 5 8 5 4 3 5 6 4 5 6 6 6 5 5 6 4 6 8 4 3 6 5 5 7 10 11 9 9 3 4 1 2 1 2 3 2 2 2 3 4 4 3
13 13 12 12 11 8 7 9 11 11 11 11 15 12 4 3 6 6 2 5 6 6 5 5 5 4 3 4 11 14 4 3 8 19 31 24 10 5 4 6 8 7 8 4 2 3 6 6 3 4 3 5 6 4 5 6 5 5 4 3 4 4 6 5 2 4 7 4 5 8 9 12 11 8 1 4 1 0 4 3 3 1 3 1 3 3 3 4
13 13 12 11 10 8 7 8 8 8 9 12 16 13 7 9 9 5 1 3 3 4 3 4 4 5 5 4 11 12 4 5 6 12 25 20 7 4 4 5 8 5 6 7 5 5 4 2 4 4 3 4 4 4 8 6 3 3 3 3 3 5 5 4 3 9 11 5 4 8 8 9 8 4 3 4 2 3 4 3 2 2 2 1 2 3 2 2
13 13 12 10 8 7 8 8 7 9 13 15 18 14 10 8 6 3 2 2 2 1 1 2 2 4 4 3 10 9 2 4 3 8 19 15 4 3 3 3 4 4 5 6 8 8 2 1 3 4 4 4 4 3 8 6 1 0 2 3 3 5 3 5 6 10 10 4 4 8 7 4 2 2 2 3 4 3 4 4 1 4 2 4 3 1 3 1
14 13 12 11 7 5 5 7 9 12 13 12 12 11 8 4 2 3 2 1 2 1 1 1 2 4 4 3 7 4 0 1 1 6 12 10 5 3 1 1 2 5 5 4 6 6 2 1 2 4 3 4 4 2 4 4 4 2 0 1 1 4 5 6 8 8 6 2 3 5 5 3 2 3 2 4 3 3 4 4 4 5 3 4 4 3 5 2
14 13 12 11 8 4 2 4 7 9 8 7 7 6 5 3 2 3 1 2 3 2 2 2 0 6 7 6 6 0 1 2 1 5 9 8 4 1 1 2 1 4 4 3 3 2 2 0 1 3 4 5 2 1 1 2 5 4 2 3 1 2 5 6 7 5 2 3 2 4 2 3 5 3 3 3 3 3 5 5 6 5 4 4 4 5 4 3
14 13 12 12 10 6 3 3 2 3 4 3 4 4 4 3 2 3 1 2 3 2 3 4 2 6 7 9 10 1 2 5 5 3 7 9 5 2 1 3 1 2 1 1 2 1 3 3 4 5 4 3 3 1 2 3 3 4 2 2 2 4 6 5 5 2 2 4 4 4 2 2 5 3 2 2 3 4 4 6 6 5 5 5 4 5 5 4
14 13 12 11 11 9 6 4 2 3 3 4 4 3 2 2 2 2 2 2 2 2 1 2 3 5 6 9 10 4 2 5 3 3 8 10 6 1 1 3 2 2 2 2 2 1 1 2 4 6 4 4 3 2 3 2 1 4 3 4 5 4 3 3 3 3 4 3 2 2 2 1 4 4 2 2 2 5 6 6 6 6 6 5 4 4 4 4
14 13 13 11 9 9 7 4 3 4 4 4 3 1 0 2 1 1 2 1 2 1 1 2 3 4 7 7 5 5 1 2 2 5 9 7 4 2 2 1 2 3 1 2 1 0 1 1 1 2 2 2 3 4 3 1 3 6 8 9 6 4 2 1 2 3 4 2 1 3 1 1 4 4 3 1 3 5 4 3 5 6 7 5 5 5 5 4
16 15 15 12 7 7 6 6 6 4 3 3 2 1 0 1 1 3 2 1 0 1 1 3 3 4 7 4 2 5 5 2 1 5 4 1 3 4 2 1 1 2 1 0 2 2 2 2 1 0 0 2 4 5 4 5 5 6 8 9 5 3 2 2 3 2 2 1 2 4 2 1 3 4 2 2 3 2 2 1 5 5 6 6 5 5 5 4
18 19 17 15 10 7 5 4 5 3 3 2 0 1 0 0 2 3 2 0 1 1 1 3 3 3 6 4 2 6 6 3 4 5 4 2 5 7 4 2 2 1 2 1 2 2 2 1 0 0 0 1 3 4 2 4 3 3 4 6 3 1 0 1 2 0 1 3 2 4 1 2 1 4 1 3 4 2 3 1 5 5 5 5 5 5 5 5
16 19 19 17 13 10 6 2 3 1 2 3 3 2 0 2 3 2 1 1 1 2 1 1 2 3 5 3 2 5 4 3 4 3 3 3 4 7 6 4 3 2 3 3 2 0 2 1 1 1 0 0 2 4 1 0 2 3 3 5 5 2 2 2 2 1 1 2 3 5 0 1 4 5 2 3 4 4 3 3 4 6 6 5 5 5 5 5
12 15 18 18 14 12 9 4 2 0 1 5 4 1 1 3 2 0 1 1 1 2 1 1 3 4 4 3 3 4 1 1 4 2 1 1 3 3 5 6 5 2 1 3 5 4 2 2 1 1 1 1 2 3 2 2 4 5 5 4 4 3 4 4 4 3 2 2 2 3 2 2 4 4 1 4 5 4 5 6 5 4 5 6 6 5 5 5
10 11 15 18 17 15 10 5 2 1 2 4 2 3 5 4 1 1 1 1 0 2 1 1 4 4 3 2 1 3 1 1 3 3 3 3 4 3 4 7 9 4 2 2 3 3 2 2 2 2 2 2 2 2 0 2 4 4 3 1 2 2 2 2 2 3 5 5 6 2 2 2 4 2 2 4 5 5 6 6 6 5 4 4 5 5 5 5
8 9 12 16 19 16 11 6 2 1 2 3 3 4 5 2 1 1 1 1 1 2 2 2 3 3 2 1 0 1 2 1 3 4 4 4 3 3 3 5 8 6 3 2 2 1 1 2 2 1 3 2 2 0 0 2 2 3 2 1 0 0 2 2 3 4 4 4 5 2 2 3 2 1 2 3 3 3 4 5 4 3 3 4 2 3 4 4
8 9 9 13 19 16 11 7 3 2 1 2 5 4 3 1 0 2 1 1 1 1 3 2 3 3 2 1 1 1 1 0 3 3 3 3 2 3 2 2 5 6 3 2 3 2 2 4 2 2 3 3 3 2 1 2 1 2 2 1 1 1 3 1 4 3 1 2 3 2 3 4 2 2 3 4 2 2 4 4 4 3 2 2 2 3 4 5
8 8 5 10 18 15 10 7 3 2 1 3 6 3 1 1 1 2 3 2 0 1 2 2 2 3 2 1 2 3 1 0 2 2 2 2 2 2 2 1 2 4 3 2 1 1 1 6 3 2 2 2 2 2 1 1 1 1 1 2 1 1 3 1 2 2 1 2 3 2 4 6 4 2 4 4 2 3 4 4 4 4 4 4 5 5 5 6
7 6 2 10 18 13 9 7 3 0 1 4 6 2 1 1 1 2 3 2 1 1 1 2 1 1 1 2 2 4 3 2 3 3 2 1 1 1 1 2 1 1 1 1 1 1 1 3 3 1 0 0 1 1 1 2 1 1 2 2 1 2 1 1 2 2 3 4 4 3 5 6 3 2 6 7 3 3 3 3 3 4 4 5 5 6 7 6
7 3 0 10 17 11 8 7 2 1 3 5 4 2 1 1 1 2 2 2 1 1 1 1 1 1 1 1 2 3 3 3 4 3 1 1 1 1 1 1 1 0 0 1 1 1 1 0 2 2 2 2 1 1 2 1 2 2 3 2 1 1 1 1 1 1 2 4 4 4 5 4 1 3 7 7 5 5 3 2 1 1 1 1 2 2 3 3
5 1 1 12 18 9 6 8 5 4 5 4 2 1 1 0 1 2 2 1 0 0 2 1 1 1 1 1 1 1 2 2 3 1 1 1 1 1 1 0 0 1 1 2 1 2 1 1 3 3 0 1 1 0 1 1 1 2 1 1 2 0 2 1 1 1 0 2 3 4 6 5 3 4 5 4 6 6 5 5 4 4 4 4 3 3 3 4
3 1 1 13 17 6 4 8 7 5 3 2 2 2 1 1 0 2 2 1 1 1 1 2 1 1 1 2 0 1 1 2 2 1 1 1 1 1 1 1 1 1 1 2 1 1 1 1 3 4 4 4 1 1 1 1 1 0 0 1 2 1 1 1 2 1 1 1 1 2 6 7 5 3 3 3 5 4 4 5 3 2 3 5 4 1 1 4
2 1 2 14 15 4 4 6 4 3 3 2 2 1 0 0 1 1 1 0 1 0 1 2 3 2 2 2 2 2 2 1 1 1 1 0 0 0 1 1 2 1 1 1 1 1 1 1 3 4 6 4 1 2 1 2 2 2 0 1 2 1 1 1 2 1 0 1 0 1 4 6 4 1 2 3 2 2 1 1 3 4 3 3 4 4 3 3
2 1 4 14 14 4 4 5 2 3 4 1 1 0 1 1 1 1 1 1 1 1 0 2 2 2 2 1 1 2 3 1 1 0 1 1 1 1 1 2 2 1 1 1 1 1 0 1 1 5 6 1 2 2 3 3 2 2 1 1 1 1 2 2 2 1 0 2 1 1 4 5 3 2 2 2 1 2 3 4 4 5 4 3 3 3 4 4
2 2 3 12 13 4 3 4 3 3 2 0 0 1 1 0 1 2 1 1 1 1 1 1 1 2 2 2 2 2 3 2 1 2 1 1 1 1 2 2 2 1 1 1 1 1 0 0 1 4 5 3 2 2 2 3 1 0 2 3 4 2 2 2 1 1 1 5 6 3 5 4 2 2 3 4 4 5 5 4 4 4 4 4 3 2 3 4
2 1 2 7 13 8 3 1 3 5 3 2 2 2 1 1 1 2 1 1 1 1 1 1 1 2 3 2 3 2 3 2 0 1 2 1 1 1 1 1 0 1 2 2 1 0 0 1 1 2 4 4 4 3 2 3 3 2 2 2 3 5 4 2 1 1 3 5 6 5 6 6 5 6 7 9 8 8 8 7 6 5 4 5 5 3 3 4
1 2 2 4 9 8 3 0 3 6 4 4 3 2 2 2 1 1 2 1 1 1 1 1 0 1 2 2 2 3 3 2 1 2 2 2 1 1 1 2 1 1 3 2 2 1 0 2 2 4 5 5 7 9 6 6 7 8 9 7 5 5 7 4 2 4 4 3 5 8 9 12 13 10 9 10 10 11 10 8 6 5 4 5 5 4 3 4
1 1 1 1 3 4 4 3 4 4 3 3 2 3 4 3 2 1 1 0 1 1 1 0 1 2 2 2 2 1 2 3 2 2 3 3 0 1 1 1 1 2 3 1 2 1 0 3 5 8 9 9 11 14 11 9 10 13 13 12 9 6 6 6 7 8 3 3 8 9 7 11 14 11 10 12 12 11 11 9 7 5 5 6 6 4 4 5
2 0 0 1 0 2 2 2 2 4 3 2 1 2 4 4 3 2 1 1 1 0 1 0 2 4 4 3 2 2 1 1 3 3 4 3 1 1 1 2 1 2 2 1 2 1 0 4 4 5 8 9 10 13 13 11 12 14 14 13 11 9 9 10 13 12 7 6 11 11 10 13 15 14 14 14 12 11 11 9 6 4 5 7 6 4 4 5
3 2 0 0 1 1 0 2 1 4 4 3 1 2 4 5 4 2 2 2 0 2 2 2 3 6 6 4 2 2 3 2 3 4 3 3 2 1 1 1 1 1 2 1 2 1 0 2 2 2 7 9 10 13 14 11 13 15 15 13 11 11 12 12 13 13 11 12 15 15 16 18 17 15 14 14 13 11 9 7 5 4 6 7 5 4 5 6
1 1 0 1 2 2 0 1 1 1 1 2 0 2 3 5 5 2 2 4 2 2 3 3 4 4 5 6 5 3 5 4 3 4 3 3 2 1 2 1 2 1 3 2 0 2 1 1 1 1 5 9 9 10 10 8 11 16 18 17 12 11 11 12 12 10 10 12 15 15 15 16 15 13 12 12 11 8 7 7 6 5 5 6 6 5 5 6
1 1 1 2 2 1 0 0 1 1 0 1 1 2 2 5 6 4 3 3 1 4 7 6 4 3 2 4 6 6 4 1 2 5 3 4 4 2 2 1 3 3 3 3 2 1 2 2 3 3 5 7 3 3 8 9 11 15 19 19 13 8 7 8 8 8 9 10 10 10 9 10 11 8 7 8 8 7 7 7 5 5 5 6 6 6 6 7
2 1 0 1 1 1 1 1 0 1 0 1 1 2 1 2 5 5 3 0 2 1 4 5 4 3 1 3 6 5 1 1 3 5 3 4 5 3 2 1 2 3 4 4 2 2 3 1 3 3 4 5 1 3 9 10 9 8 8 8 6 5 5 6 6 8 10 8 6 6 7 8 7 5 6 8 7 7 7 5 4 6 6 7 7 7 7 7
Wind_Direction
70 69 65 60 53 49 46 42 40 37 35 36 35 32 31 40 43 42 41 30 10 334 302 288 275 327 11 38 37 40 37 32 39 42 37 11 358 3 3 4 4 8 12 8 10 14 22 39 45 44 46 38 26 11 13 11 353 14 61 60 61 47 41 27 24 22 5 4 10 17 19 22 11 1 346 331 11 36 26 35 15 16 32 20 10 2 358 359
66 63 58 52 46 42 39 36 35 33 31 34 35 29 27 42 49 53 55 51 45 26 358 303 278 263 288 340 355 19 28 27 36 36 20 6 9 12 11 13 10 10 6 357 359 2 13 35 47 51 49 48 29 17 28 16 17 44 69 68 70 64 53 37 35 30 16 2 7 20 17 32 24 0 354 341 4 34 22 12 5 1 4 4 5 2 358 0
65 61 54 47 42 37 35 31 31 29 30 35 36 27 27 47 60 62 64 57 50 43 39 11 303 267 268 283 301 332 357 24 37 22 360 6 13 14 17 16 13 13 2 346 347 359 21 34 49 58 57 60 38 33 48 19 19 45 69 80 79 84 74 45 39 33 26 6 8 24 11 29 45 18 9 352 359 38 28 358 356 354 349 351 356 0 358 360
67 63 56 48 41 36 31 28 28 27 31 38 34 27 30 58 80 71 68 56 46 44 45 47 38 330 278 272 292 314 318 26 36 354 354 8 12 17 22 19 13 12 3 352 3 31 46 46 50 55 60 65 48 50 51 26 31 49 58 81 90 92 81 48 37 26 21 18 14 21 12 17 42 48 31 7 7 27 20 359 352 341 339 344 347 360 358 359
68 65 58 50 42 35 30 28 26 29 38 42 36 34 41 65 94 78 64 45 37 43 48 56 59 55 45 303 274 315 313 35 8 345 358 8 14 21 22 19 11 11 12 12 33 59 63 58 55 54 58 61 51 56 56 47 70 77 62 71 83 84 79 60 42 18 9 18 18 18 12 0 9 53 44 28 33 14 352 346 340 330 335 342 345 1 1 1
69 64 57 50 43 35 31 30 31 40 48 47 46 48 53 66 81 67 48 29 27 41 54 64 67 68 68 72 88 73 57 96 338 343 359 8 18 21 19 16 9 17 30 29 34 49 60 60 61 61 62 64 59 59 59 51 67 90 77 72 75 76 81 69 46 15 5 15 15 11 6 350 355 33 53 44 38 6 344 331 327 328 333 345 352 5 8 2
69 64 58 50 43 37 34 38 45 54 55 55 60 60 60 67 69 63 53 37 28 32 57 72 68 69 71 71 75 73 77 65 342 345 355 7 21 17 14 16 13 24 38 30 24 33 52 57 62 69 73 72 70 70 71 62 64 90 94 89 82 81 86 81 70 26 4 25 7 336 346 14 7 12 41 46 32 5 343 326 328 331 333 354 1 9 15 3
70 63 57 50 43 39 40 49 57 60 61 64 68 65 64 66 65 64 62 60 55 48 59 65 44 55 70 67 69 68 65 8 345 347 347 4 22 15 17 25 21 27 35 30 20 17 29 55 58 61 72 77 86 85 89 76 63 81 99 103 95 90 88 98 115 80 5 30 1 320 339 53 26 346 16 31 23 8 340 323 331 336 336 359 4 9 17 4
70 63 56 49 44 41 43 52 58 61 66 71 72 69 65 61 58 59 61 66 68 65 64 56 33 359 66 44 69 70 37 357 350 345 344 6 15 15 26 28 22 25 31 32 27 22 16 42 42 48 79 77 78 76 91 85 66 89 109 111 102 93 80 70 82 83 104 42 9 335 334 66 44 320 73 48 18 0 337 320 330 341 340 360 358 3 19 12
70 63 56 50 45 42 41 45 53 60 69 75 73 64 57 53 53 56 60 64 66 63 62 61 57 59 56 353 342 73 8 351 2 348 353 11 9 15 26 24 23 26 29 34 29 23 14 17 10 25 79 71 56 53 40 77 112 115 114 115 100 90 75 58 40 35 151 47 11 335 319 36 66 297 51 35 7 352 336 322 330 347 355 4 359 3 18 20
71 64 57 50 46 42 37 36 44 55 64 71 62 43 41 47 54 57 58 57 59 58 56 60 61 63 60 47 70 70 352 352 1 357 10 14 9 14 15 17 23 25 28 36 31 19 11 358 330 341 73 89 72 62 49 72 123 124 130 122 105 98 74 58 45 14 327 38 356 315 302 318 122 301 12 8 353 348 332 324 338 353 4 9 10 4 11 18
72 65 57 50 46 40 33 30 37 53 60 62 52 42 43 47 53 52 49 47 51 58 59 58 51 55 57 48 62 41 8 13 355 6 23 21 19 12 5 14 24 28 26 28 28 22 22 14 1 27 93 122 110 85 67 272 134 141 188 138 121 122 76 47 43 8 349 37 329 308 295 247 167 61 33 10 351 347 331 328 342 355 7 10 13 6 10 17
72 64 55 47 38 33 31 30 39 57 65 66 57 51 48 48 52 50 47 44 41 51 62 62 52 52 69 54 50 24 23 23 2 16 27 27 33 15 7 19 25 36 37 34 31 29 35 30 38 64 60 86 104 61 143 220 172 165 226 234 165 157 69 45 39 5 0 13 320 323 331 186 131 98 62 39 359 348 334 325 337 1 10 8 7 2 12 18
70 59 45 36 27 28 33 37 47 59 62 58 49 40 38 38 41 45 47 45 43 49 55 60 55 52 59 79 46 23 22 22 17 18 18 18 23 22 28 30 22 35 46 47 43 38 35 19 30 70 44 65 79 24 182 191 183 168 234 329 336 337 51 60 43 15 12 353 327 328 315 53 116 134 128 103 21 355 333 318 341 18 9 5 6 2 4 12
54 40 31 23 17 24 35 46 58 69 70 61 54 42 27 16 19 37 48 46 46 52 61 63 59 50 61 86 35 16 18 22 17 9 8 7 9 14 16 16 13 22 36 35 30 28 22 11 13 67 43 88 100 97 201 164 139 47 24 17 0 351 45 68 50 36 20 341 333 329 301 318 355 110 127 137 118 30 330 312 354 28 1 354 0 9 3 357
30 21 16 10 8 18 29 46 62 73 74 70 64 56 47 35 8 351 8 33 43 47 59 53 38 52 84 56 357 8 14 11 4 2 8 3 2 8 360 1 358 358 5 357 360 351 341 6 17 43 47 51 345 286 197 58 32 17 10 25 12 345 347 24 139 70 24 347 337 331 298 293 310 6 7 111 102 57 335 319 8 31 358 346 348 5 9 355
11 4 2 359 1 10 20 34 55 73 73 66 58 53 51 46 41 36 328 338 36 42 49 32 18 81 76 11 357 2 349 348 357 4 6 1 3 8 1 3 333 328 327 318 348 345 317 354 332 34 41 26 0 347 72 41 353 359 2 357 18 346 336 350 153 72 20 359 331 309 272 276 297 331 324 75 82 41 335 333 27 39 357 338 338 1 9 4
1 355 356 357 3 15 23 26 19 27 8 358 359 4 36 45 48 53 47 56 57 18 39 20 15 93 54 3 359 330 320 336 358 2 2 4 1 357 348 334 302 309 307 298 2 2 339 1 34 53 33 21 15 12 55 35 339 349 351 338 352 333 325 348 9 28 10 354 321 306 282 296 316 314 304 106 86 23 318 353 57 62 11 336 331 9 8 7
6 2 5 7 15 29 37 38 32 5 328 314 319 325 334 29 47 47 42 51 57 25 35 1 6 97 353 342 335 326 320 327 356 2 5 5 349 344 338 303 283 309 342 59 16 11 358 22 39 39 20 5 12 14 20 5 339 330 316 299 306 310 315 347 9 38 4 338 311 315 306 304 314 313 317 86 87 19 295 11 93 114 148 272 292 23 26 34
18 15 18 20 27 38 39 40 38 25 9 350 329 332 349 343 40 36 31 46 59 59 85 356 9 75 11 318 327 339 341 315 0 7 5 1 342 336 349 332 273 0 25 13 8 9 23 55 49 24 352 343 354 358 347 334 320 308 297 289 298 309 325 334 3 41 3 337 300 313 308 298 306 308 316 78 86 306 284 343 102 113 212 247 324 34 29 64
24 22 25 26 33 39 30 30 32 27 22 22 34 47 46 1 54 103 30 55 61 58 78 52 42 70 355 314 330 345 351 294 3 7 5 6 355 338 347 348 27 33 8 13 60 359 33 60 48 359 345 326 323 324 322 310 302 299 293 306 315 338 332 322 12 39 354 344 300 311 310 297 301 298 301 95 137 274 358 30 57 28 310 305 32 39 18 25
27 25 28 31 37 37 20 18 24 24 21 41 66 75 86 86 104 136 144 84 56 30 67 55 52 60 347 328 344 346 341 337 358 3 4 7 12 23 341 358 56 40 357 24 80 18 47 60 6 343 345 307 290 307 326 295 275 285 288 327 332 356 342 315 71 20 341 329 297 316 315 296 289 279 230 120 235 36 80 73 78 9 286 337 40 43 31 10
26 25 26 32 41 40 30 25 20 21 36 67 81 86 102 100 109 125 61 109 78 4 50 43 37 32 1 357 359 356 15 15 349 348 358 2 12 22 351 17 58 53 16 37 60 54 54 38 350 333 304 303 293 350 355 315 243 259 313 10 333 356 6 300 340 345 322 308 314 319 305 289 284 258 170 148 143 87 93 99 108 245 254 99 61 30 14 9
25 23 23 25 36 43 46 43 38 51 65 81 88 94 111 108 96 57 19 120 91 19 86 56 58 39 10 354 359 359 39 26 338 330 352 5 359 324 0 34 37 44 34 45 80 88 100 257 334 302 264 276 278 0 14 348 338 79 25 44 321 333 345 275 306 323 309 320 6 333 310 286 260 199 176 135 118 119 127 117 201 250 198 142 112 26 299 323
25 22 22 22 24 37 50 50 58 73 76 77 84 96 106 104 66 24 44 99 31 1 152 121 120 29 354 340 360 4 176 12 30 329 344 8 2 317 36 32 10 28 5 10 82 93 90 193 282 304 290 276 270 355 19 342 338 341 51 83 277 310 301 287 307 320 322 352 26 5 344 308 263 225 179 130 152 192 148 138 230 242 195 178 164 196 243 208
26 23 24 24 22 27 52 57 66 82 84 69 81 106 92 74 68 35 79 115 17 327 337 350 349 358 351 343 343 313 146 346 333 337 347 10 8 209 52 356 68 49 350 345 77 81 4 139 239 318 305 292 285 65 20 4 344 321 231 200 204 296 290 302 324 338 350 293 325 44 49 292 299 264 161 147 224 218 153 169 216 218 204 208 186 184 198 159
26 26 26 27 27 37 80 108 94 78 80 102 117 110 76 57 59 27 65 99 23 316 334 347 329 349 347 336 335 30 137 316 310 1 6 6 356 212 32 13 63 61 80 40 21 346 344 10 6 341 321 343 24 34 3 36 353 299 215 195 294 300 294 314 330 310 274 285 326 36 95 242 294 284 141 130 279 262 209 197 199 194 200 212 193 160 149 133
26 27 28 28 31 46 80 113 117 85 107 160 157 114 70 34 31 21 74 97 351 303 303 331 318 343 338 330 349 63 151 306 331 5 346 352 355 277 37 31 344 339 139 118 16 314 299 18 6 337 341 17 12 307 324 28 291 277 308 326 297 279 290 314 308 269 272 303 327 349 76 141 279 270 143 123 286 276 251 211 191 183 184 201 191 146 143 145
25 28 28 24 29 45 64 87 96 106 135 166 163 153 102 33 39 41 65 132 308 316 192 333 332 335 332 325 9 55 32 354 54 320 322 344 5 25 62 28 322 316 199 148 60 160 179 80 9 331 359 359 310 291 305 215 227 281 316 314 278 218 192 255 266 274 287 307 251 241 210 17 298 258 170 158 285 278 266 198 175 167 165 182 178 153 159 157
25 27 25 21 27 37 46 56 64 92 120 138 155 199 224 45 67 60 39 213 313 327 225 358 341 299 330 340 33 18 5 45 37 311 318 348 353 14 91 165 293 309 295 67 65 71 109 76 20 96 80 289 285 286 264 213 243 306 320 300 267 171 146 228 239 265 312 304 202 205 204 76 320 268 162 134 209 240 319 112 134 140 155 167 165 154 165 169
25 25 22 22 30 29 30 43 40 73 105 83 103 317 21 38 47 79 83 185 61 332 292 13 348 310 350 9 10 350 354 0 353 357 2 3 4 11 40 28 333 1 352 353 68 109 141 128 302 122 23 291 287 287 239 208 258 333 315 295 314 74 4 281 236 137 29 297 218 186 204 128 203 277 1 103 151 140 359 42 138 147 161 159 158 158 167 174
24 24 24 24 27 28 35 37 8 65 98 13 338 298 148 50 25 78 161 346 357 332 5 6 328 344 346 339 346 346 349 342 348 22 359 349 30 25 41 38 341 2 27 353 350 200 191 196 174 147 24 4 306 310 1 24 317 333 318 329 352 354 2 356 313 320 314 276 195 158 73 295 222 251 306 64 82 87 38 31 110 146 162 158 158 160 162 162
16 19 23 23 24 26 30 25 358 343 340 359 354 327 63 71 37 173 228 351 307 313 50 210 291 321 329 336 356 345 342 318 333 5 314 346 56 49 62 49 10 2 335 332 345 344 344 344 6 82 275 274 347 3 17 341 338 341 344 3 4 6 9 336 320 328 301 282 250 171 128 303 265 264 327 72 59 54 58 46 54 103 141 152 155 155 156 160
4 10 13 15 21 23 18 11 5 18 15 16 31 43 53 74 88 45 15 353 292 298 309 294 303 312 353 30 16 343 1 250 331 345 333 7 43 34 41 29 17 8 291 323 358 354 10 329 322 15 309 296 16 54 108 300 313 314 314 21 32 36 34 302 322 323 296 303 311 303 132 271 285 312 21 74 65 48 63 61 45 49 71 107 130 145 159 173
354 2 5 9 12 12 10 11 17 64 44 34 64 59 62 98 217 51 37 314 42 308 300 340 323 310 354 39 150 24 59 9 348 7 7 21 36 12 8 2 4 5 328 351 12 343 346 278 264 31 323 338 40 45 209 343 296 273 296 72 29 79 158 252 265 263 286 311 303 273 185 259 256 107 41 52 72 83 95 93 75 57 53 69 94 167 181 196
352 358 1 6 5 1 6 11 25 73 54 51 66 54 54 109 311 32 16 316 40 354 320 329 338 346 354 353 343 353 113 88 337 4 27 42 48 30 46 359 354 11 20 16 359 2 340 283 226 95 352 27 50 340 10 34 303 291 345 56 240 216 136 242 278 269 331 321 277 265 278 294 343 61 19 25 31 147 139 140 149 168 162 144 216 236 220 220
356 358 348 358 0 358 0 5 29 72 352 54 70 70 79 101 299 357 2 333 344 332 323 327 357 23 353 327 12 353 356 110 339 2 31 39 42 28 63 85 340 11 47 60 26 64 331 288 274 97 5 10 44 348 6 24 342 9 336 233 230 66 106 156 291 316 339 288 276 306 315 317 332 332 338 345 291 209 182 181 180 187 196 202 219 226 225 227
359 353 335 359 1 1 360 2 20 67 355 61 76 102 124 60 294 357 3 330 271 290 341 3 8 67 2 318 4 354 351 1 353 9 42 41 9 317 45 82 12 7 66 95 69 71 266 286 310 1 319 223 80 43 12 303 338 28 284 257 94 67 20 314 310 312 320 310 295 317 340 326 308 337 339 330 293 186 170 175 187 213 222 228 235 229 224 222
2 346 244 1 2 6 11 8 357 344 41 73 86 113 105 54 28 38 4 322 251 302 21 52 314 48 68 332 337 359 16 9 344 357 59 47 353 281 249 173 178 143 129 68 71 321 317 199 289 284 177 135 99 82 59 324 328 352 320 319 35 131 210 295 306 258 299 310 305 327 340 318 283 7 341 340 17 42 56 88 73 336 330 329 312 296 275 245
5 1 190 356 359 4 23 29 39 42 52 70 72 105 169 74 93 85 31 356 139 53 24 27 309 351 17 289 310 39 14 344 328 328 20 26 28 12 14 9 211 157 66 37 41 298 338 149 262 289 47 54 322 112 56 24 7 357 335 347 355 100 158 225 228 139 296 297 305 321 311 285 293 343 338 11 40 30 29 40 31 17 20 14 15 22 346 317
358 47 272 352 358 358 35 44 43 39 70 97 63 80 171 234 154 101 78 16 37 106 65 41 43 52 354 310 354 77 339 318 331 332 342 21 59 15 1 342 351 9 31 29 2 284 346 232 279 305 309 312 299 166 20 31 101 40 241 61 18 32 83 325 313 29 41 257 250 298 294 283 288 325 352 37 50 43 33 25 349 322 0 5 1 6 283 283
357 48 320 350 359 14 63 58 47 28 69 100 42 50 51 86 99 60 68 21 9 246 151 77 61 62 45 323 323 32 6 310 272 329 329 279 158 85 357 346 359 10 358 340 157 102 45 268 287 283 278 301 61 127 47 27 93 89 102 14 19 45 125 282 298 337 330 265 223 225 263 269 270 314 354 11 66 93 63 296 272 288 331 355 343 335 321 296
6 298 323 354 1 23 74 70 73 44 54 53 275 279 38 48 81 24 358 329 350 316 353 85 50 32 35 320 330 25 10 341 182 170 318 295 344 89 80 22 9 351 347 336 128 70 35 212 284 278 269 279 103 101 23 5 35 68 235 228 220 200 134 175 248 350 305 233 187 196 253 261 273 295 310 299 221 222 241 240 254 279 297 304 306 328 335 324
349 275 307 0 7 27 93 87 111 94 80 154 122 93 94 3 21 41 26 13 16 328 354 66 54 51 46 10 22 18 353 2 153 134 84 288 321 89 128 79 28 6 41 25 333 5 355 211 349 318 310 332 14 20 6 338 337 224 223 190 187 196 101 92 231 63 263 225 195 204 253 254 273 306 294 279 277 291 303 301 290 282 294 311 308 297 306 307
331 295 265 0 21 47 101 138 124 120 131 140 108 105 145 122 57 42 18 38 36 353 31 66 45 74 83 57 44 20 4 17 168 54 41 276 231 97 117 130 80 23 65 53 342 354 283 302 339 333 322 320 315 315 325 329 324 296 262 211 189 193 171 157 230 223 242 227 195 209 251 267 288 300 296 296 304 314 319 321 316 315 332 332 316 296 292 294
340 18 308 344 23 50 86 292 94 114 145 151 127 147 155 119 115 75 21 42 65 1 52 123 279 87 111 118 75 24 350 344 328 336 325 273 199 101 145 171 162 67 84 67 5 4 300 293 240 227 242 255 271 284 313 338 317 293 287 282 262 221 196 182 210 226 235 257 241 235 247 269 283 288 292 301 311 312 312 315 314 313 323 319 303 291 290 288
75 21 355 339 5 40 58 37 60 100 155 165 146 156 142 122 136 111 4 28 92 29 356 221 178 158 166 166 132 89 316 327 337 303 266 251 194 99 130 144 93 106 115 64 2 27 307 272 228 222 236 248 266 283 304 318 294 282 285 283 272 250 218 202 219 230 246 308 267 249 250 272 284 295 302 301 304 305 308 312 310 308 309 298 282 271 282 290
60 154 209 117 33 42 43 6 39 79 98 115 117 143 139 143 165 170 190 156 73 224 188 131 235 214 199 174 142 154 207 323 315 279 263 261 248 119 101 33 42 160 158 37 5 49 274 264 231 223 252 262 271 284 293 293 282 276 275 273 269 258 234 224 235 238 232 247 257 268 287 285 284 290 294 293 295 297 298 301 306 312 302 288 275 264 267 275
78 91 18 85 103 103 223 291 27 82 84 76 103 169 163 164 172 162 122 117 51 244 182 163 228 216 201 190 158 153 177 187 274 265 250 258 269 200 218 342 36 232 221 99 20 1 158 244 254 269 282 280 274 277 279 277 279 280 273 265 260 254 241 236 244 242 233 242 255 268 278 278 277 278 280 283 284 286 288 292 296 297 290 287 287 277 263 262
110 104 77 107 93 93 186 285 11 87 73 20 9 189 181 176 173 148 142 154 160 194 184 212 222 196 186 187 178 198 206 186 229 250 225 223 245 196 214 229 113 221 239 167 167 306 184 228 9 40 293 285 271 269 276 276 280 285 286 282 271 259 252 246 245 243 240 248 255 262 269 271 272 272 270 271 273 278 285 287 280 266 267 280 287 280 269 268
67 83 114 113 98 89 223 29 355 13 112 277 216 176 206 206 180 149 159 184 158 166 179 187 180 148 137 186 204 228 240 182 229 249 224 218 233 189 174 178 108 137 210 195 179 192 181 273 348 27 310 291 273 287 296 294 287 283 283 282 272 245 232 237 230 213 213 231 246 256 262 262 265 268 266 267 275 285 288 289 286 265 253 261 268 268 268 270
53 43 324 84 89 244 228 141 79 28 190 248 133 137 194 197 152 138 138 18 37 130 188 175 148 140 161 211 222 224 182 165 257 270 256 246 262 254 235 299 84 135 189 187 165 168 175 236 347 9 300 286 338 327 305 308 309 290 264 256 254 228 216 236 240 213 202 206 224 234 240 252 267 287 293 289 290 287 278 276 279 271 261 259 258 256 258 261